Total_Precipitation_Accumulation
0.00 0.00 0.00 0.00 0.00 0.00 0.02 0.07 0.13 0.07 0.01 0.00 0.01 0.02 0.03 0.04 0.04 0.07 0.08 0.05 0.05 0.06 0.06 0.05 0.05 0.07 0.08 0.09 0.15 0.23 0.37 0.52 0.62 0.62 0.62 0.66 0.67 0.74
0.00 0.00 0.00 0.00 0.00 0.00 0.01 0.02 0.06 0.11 0.06 0.00 0.00 0.02 0.04 0.05 0.03 0.05 0.06 0.10 0.11 0.09 0.08 0.09 0.12 0.15 0.17 0.19 0.19 0.18 0.22 0.26 0.27 0.31 0.40 0.53 0.64 0.69
0.00 0.00 0.00 0.00 0.00 0.00 0.00 0.00 0.00 0.04 0.07 0.00 0.00 0.00 0.02 0.03 0.03 0.05 0.05 0.04 0.04 0.08 0.14 0.13 0.11 0.13 0.17 0.21 0.24 0.28 0.32 0.35 0.33 0.31 0.34 0.40 0.46 0.51
0.00 0.00 0.00 0.00 0.00 0.00 0.00 0.00 0.00 0.02 0.05 0.04 0.01 0.00 0.00 0.01 0.02 0.03 0.05 0.08 0.06 0.05 0.08 0.09 0.09 0.12 0.14 0.14 0.16 0.20 0.26 0.34 0.42 0.50 0.54 0.52 0.47 0.51
0.00 0.00 0.00 0.00 0.00 0.00 0.00 0.00 0.01 0.02 0.04 0.08 0.03 0.00 0.01 0.01 0.04 0.04 0.04 0.04 0.04 0.07 0.11 0.13 0.13 0.13 0.12 0.13 0.19 0.25 0.31 0.40 0.46 0.49 0.55 0.65 0.72 0.69
0.00 0.00 0.00 0.00 0.00 0.00 0.00 0.01 0.02 0.03 0.03 0.07 0.13 0.08 0.05 0.05 0.07 0.04 0.04 0.04 0.04 0.03 0.06 0.12 0.14 0.15 0.15 0.18 0.21 0.26 0.28 0.33 0.45 0.52 0.57 0.62 0.63 0.63
0.00 0.00 0.00 0.00 0.00 0.00 0.02 0.03 0.04 0.07 0.17 0.24 0.19 0.22 0.15 0.05 0.04 0.04 0.07 0.05 0.05 0.04 0.06 0.11 0.11 0.10 0.09 0.16 0.25 0.28 0.31 0.36 0.49 0.68 0.79 0.86 0.91 0.90
0.00 0.00 0.00 0.00 0.00 0.00 0.02 0.03 0.07 0.16 0.18 0.41 0.34 0.13 0.03 0.02 0.03 0.11 0.22 0.24 0.16 0.03 0.05 0.04 0.05 0.06 0.08 0.15 0.24 0.25 0.31 0.40 0.45 0.52 0.58 0.57 0.58 0.62
0.00 0.00 0.00 0.00 0.01 0.01 0.01 0.06 0.12 0.25 0.24 0.12 0.06 0.06 0.08 0.11 0.32 0.39 0.23 0.17 0.09 0.03 0.08 0.10 0.08 0.10 0.13 0.16 0.24 0.29 0.36 0.44 0.51 0.54 0.52 0.52 0.54 0.52
0.00 0.00 0.00 0.01 0.02 0.03 0.06 0.20 0.19 0.09 0.01 0.02 0.04 0.11 0.22 0.24 0.20 0.12 0.10 0.13 0.09 0.05 0.10 0.24 0.10 0.10 0.08 0.16 0.30 0.24 0.30 0.42 0.54 0.60 0.59 0.52 0.49 0.57
0.00 0.00 0.04 0.03 0.02 0.10 0.24 0.24 0.04 0.00 0.00 0.05 0.13 0.11 0.05 0.02 0.03 0.23 0.34 0.32 0.21 0.05 0.06 0.21 0.15 0.12 0.11 0.17 0.33 0.39 0.42 0.44 0.43 0.39 0.37 0.37 0.42 0.44
0.01 0.02 0.02 0.02 0.07 0.30 0.14 0.04 0.08 0.04 0.09 0.06 0.01 0.00 0.01 0.02 0.07 0.16 0.43 0.75 0.38 0.27 0.07 0.35 0.24 0.19 0.40 0.19 0.34 0.44 0.42 0.44 0.40 0.38 0.35 0.34 0.34 0.32
0.09 0.02 0.01 0.08 0.26 0.10 0.03 0.03 0.06 0.05 0.04 0.01 0.00 0.00 0.01 0.01 0.04 0.08 0.22 0.66 0.78 0.48 0.11 0.60 0.62 0.24 0.43 0.30 0.38 0.47 0.44 0.51 0.58 0.70 0.75 0.55 0.43 0.34
0.04 0.02 0.10 0.22 0.04 0.01 0.01 0.03 0.04 0.03 0.01 0.02 0.03 0.02 0.02 0.03 0.03 0.04 0.09 0.19 0.37 0.60 0.28 0.41 0.73 0.37 0.51 0.48 0.45 0.48 0.49 0.63 0.92 1.14 1.23 0.75 0.65 0.53
0.05 0.17 0.16 0.02 0.00 0.00 0.01 0.01 0.01 0.01 0.05 0.13 0.09 0.05 0.03 0.04 0.05 0.06 0.12 0.16 0.21 0.27 0.33 0.41 0.62 0.60 0.61 0.53 0.40 0.40 0.56 0.69 0.85 0.96 0.99 1.00 0.75 0.42
0.17 0.17 0.01 0.00 0.00 0.00 0.00 0.00 0.00 0.02 0.10 0.22 0.18 0.07 0.04 0.05 0.08 0.16 0.33 0.28 0.37 0.29 0.34 0.44 0.54 0.55 0.44 0.36 0.41 0.44 0.53 0.77 0.78 0.80 0.77 0.90 0.87 0.52
0.07 0.00 0.00 0.00 0.00 0.00 0.00 0.00 0.00 0.01 0.07 0.10 0.16 0.14 0.08 0.08 0.11 0.21 0.44 0.54 0.58 0.50 0.45 0.41 0.32 0.30 0.35 0.38 0.41 0.44 0.48 0.62 0.87 0.89 0.65 0.78 0.87 0.76
0.00 0.00 0.01 0.01 0.02 0.01 0.01 0.02 0.01 0.03 0.09 0.16 0.16 0.16 0.23 0.23 0.26 0.28 0.49 0.63 0.61 0.52 0.52 0.45 0.33 0.24 0.28 0.30 0.42 0.55 0.55 0.66 0.89 0.78 0.64 0.49 0.78 0.96
0.01 0.03 0.03 0.02 0.02 0.02 0.03 0.05 0.06 0.05 0.15 0.24 0.30 0.33 0.32 0.26 0.31 0.42 0.52 0.53 0.52 0.47 0.36 0.25 0.25 0.27 0.30 0.25 0.27 0.54 0.60 0.66 0.62 0.49 0.47 0.40 0.59 0.82
0.04 0.05 0.03 0.03 0.02 0.05 0.07 0.10 0.14 0.11 0.16 0.27 0.35 0.32 0.35 0.40 0.42 0.46 0.51 0.49 0.41 0.26 0.10 0.06 0.10 0.22 0.31 0.31 0.25 0.55 0.58 0.53 0.37 0.41 0.50 0.40 0.59 0.55
0.04 0.03 0.02 0.03 0.05 0.07 0.09 0.12 0.16 0.25 0.38 0.42 0.34 0.39 0.38 0.44 0.42 0.43 0.41 0.31 0.17 0.09 0.04 0.03 0.06 0.15 0.21 0.14 0.19 0.28 0.49 0.48 0.31 0.28 0.31 0.23 0.35 0.26
0.02 0.03 0.03 0.03 0.06 0.10 0.14 0.16 0.19 0.22 0.28 0.31 0.37 0.41 0.43 0.46 0.44 0.31 0.20 0.13 0.08 0.10 0.05 0.01 0.01 0.06 0.07 0.07 0.12 0.17 0.20 0.21 0.20 0.15 0.21 0.23 0.24 0.39
0.03 0.04 0.03 0.05 0.09 0.11 0.13 0.15 0.23 0.27 0.32 0.41 0.41 0.41 0.37 0.30 0.18 0.13 0.10 0.10 0.09 0.08 0.05 0.04 0.02 0.03 0.05 0.07 0.06 0.08 0.08 0.07 0.07 0.09 0.29 0.24 0.24 0.34